Date,TemperatureHighF,TemperatureAvgF,TemperatureLowF,DewpointHighF,DewpointAvgF,DewpointLowF,HumidityHigh,HumidityAvg,HumidityLow,PressureMaxIn,PressureMinIn,WindSpeedMaxMPH,WindSpeedAvgMPH,GustSpeedMaxMPH,PrecipitationSumIn
2012-12-1,58.3,58.2,57.3,56.0,-71.4,-99.9,92,92,92,29.84,29.79,9,3,13,0.00
2012-12-2,61.2,53.8,45.8,58.1,-2.6,-99.9,95,91,78,30.05,29.65,24,1,33,0.02
2012-12-3,66.0,51.1,40.8,53.7,46.3,38.9,94,85,58,30.15,30.04,4,0,0,0.00
2012-12-4,60.1,53.9,49.6,54.4,17.2,-99.9,95,90,76,30.16,30.07,3,0,0,0.02
2012-12-5,61.6,56.4,54.3,61.0,-50.5,-99.9,99,96,94,30.10,30.03,1,0,0,0.00
2012-12-6,63.4,53.6,47.7,56.9,-4.8,-99.9,97,87,67,30.08,30.01,5,0,0,0.00
2012-12-7,53.9,49.9,46.2,51.9,-57.0,-99.9,99,91,86,30.09,30.00,1,0,0,0.01
2012-12-8,54.9,49.0,41.5,51.3,-40.8,-99.9,99,94,87,30.07,29.98,0,0,0,0.00
2012-12-9,62.2,51.2,46.6,51.3,-27.2,-99.9,94,85,60,30.13,30.03,2,0,0,0.00
2012-12-10,76.0,55.0,43.9,53.3,46.1,41.2,91,75,40,30.18,30.04,2,0,0,0.01
2012-12-11,67.8,51.3,42.2,52.8,45.4,40.0,93,81,56,30.04,29.78,11,0,0,0.04
2012-12-12,62.0,49.1,39.5,49.4,42.4,36.2,92,79,50,29.85,29.76,8,0,0,0.02
2012-12-13,62.6,44.6,34.6,44.2,36.9,32.2,93,76,42,29.88,29.79,4,0,0,0.01
2012-12-14,49.5,41.8,35.6,46.1,36.0,-99.9,98,92,80,29.99,29.77,0,0,0,0.09
2012-12-15,46.5,41.9,35.6,44.9,24.0,-99.9,97,94,91,30.03,29.94,9,0,0,0.00
2012-12-16,53.9,47.7,44.1,51.9,29.2,-99.9,95,94,93,30.06,29.94,20,0,22,0.00
2012-12-17,59.3,52.7,42.8,54.6,48.8,39.1,93,87,75,30.00,29.91,17,1,21,0.00
2012-12-18,57.8,46.1,38.8,39.4,33.2,28.0,86,61,45,30.15,29.94,11,1,14,0.00
2012-12-19,56.9,41.4,31.3,38.6,30.3,26.0,84,66,42,30.26,30.14,6,0,0,0.00
2012-12-20,60.2,46.5,33.1,45.7,38.0,29.2,93,74,47,30.17,29.89,24,1,24,0.00
2012-12-21,54.4,53.1,51.9,51.0,49.1,45.7,92,87,75,29.90,29.77,27,4,30,0.40
2012-12-22,59.0,50.7,46.0,51.8,46.8,42.2,93,87,65,30.00,29.76,23,1,30,0.00
2012-12-23,56.6,51.8,45.7,54.6,49.6,43.8,93,92,90,29.99,29.77,26,2,26,0.00
2012-12-24,62.9,48.6,40.6,51.9,43.6,37.9,94,84,56,30.16,29.96,4,0,0,0.00
2012-12-25,47.4,43.7,39.6,46.0,41.9,37.2,95,93,90,30.11,29.72,8,0,13,0.00
2012-12-26,57.5,48.6,44.9,51.0,44.3,38.9,95,85,70,30.05,29.80,10,1,15,0.00
2012-12-27,64.5,48.9,40.2,45.9,39.8,36.8,90,72,42,30.12,30.04,7,0,0,0.00
2012-12-28,47.7,42.7,38.2,43.8,39.9,35.8,95,90,78,30.13,30.00,3,0,0,0.16
2012-12-29,58.7,45.8,39.3,49.1,41.5,36.6,94,85,62,30.03,29.95,1,0,0,0.08
2012-12-30,64.0,45.4,35.5,46.3,38.4,33.4,93,78,44,30.14,30.00,3,0,0,0.01
2012-12-31,63.4,44.4,32.9,44.0,3.1,-99.9,91,76,30,30.24,30.14,2,0,0,0.00